This is the latest recevied weather packets stored in our database for station/object W4GAP. If no packets are shown the sender has not sent any weather packets the latest 10 day(s).
| Time | Temp. | Humidity | Pressure | Rain* | Wind** | Luminosity | Snow |
|---|---|---|---|---|---|---|---|
| 1777827752 | 19.44° C | 39% | 1017.1 hPa | 0 mm | - | 771 W/m² | - |
| 1777827449 | 18.89° C | 41% | 1017.1 hPa | 0 mm | - | 778 W/m² | - |
| 1777827146 | 18.33° C | 44% | 1017.3 hPa | 0 mm | - | 779 W/m² | - |
| 1777826842 | 18.33° C | 42% | 1017.3 hPa | 0 mm | - | 783 W/m² | - |
| 1777826540 | 18.89° C | 44% | 1017.2 hPa | 0 mm | - | 791 W/m² | - |
| 1777826235 | 18.89° C | 42% | 1017.6 hPa | 0 mm | - | 798 W/m² | - |
| 1777825934 | 17.78° C | 43% | 1017.5 hPa | 0 mm | - | 785 W/m² | - |
| 1777825630 | 17.78° C | 43% | 1017.7 hPa | 0 mm | - | 797 W/m² | - |
| 1777825329 | 18.89° C | 43% | 1017.6 hPa | 0 mm | - | 798 W/m² | - |
| 1777825025 | 18.33° C | 43% | 1017.7 hPa | 0 mm | - | 809 W/m² | - |
| 1777824721 | 17.78° C | 43% | 1017.8 hPa | 0 mm | - | 827 W/m² | - |
| 1777824418 | 16.67° C | 47% | 1018 hPa | 0 mm | - | 831 W/m² | - |
| 1777824113 | 16.67° C | 47% | 1017.8 hPa | 0 mm | - | 792 W/m² | - |
| 1777823810 | 16.11° C | 48% | 1017.7 hPa | 0 mm | - | 775 W/m² | - |
| 1777823508 | 16.11° C | 48% | 1018 hPa | 0 mm | - | 262 W/m² | - |
| 1777823204 | 16.67° C | 49% | 1017.7 hPa | 0 mm | - | 333 W/m² | - |
| 1777822903 | 15.56° C | 51% | 1017.8 hPa | 0 mm | - | 143 W/m² | - |
| 1777822600 | 15° C | 52% | 1017.8 hPa | 0 mm | - | 157 W/m² | - |
| 1777822297 | 15° C | 51% | 1017.9 hPa | 0 mm | - | 33 W/m² | - |
| 1777821995 | 15.56° C | 51% | 1017.8 hPa | 0 mm | - | 102 W/m² | - |
| 1777821693 | 15° C | 54% | 1017.6 hPa | 0 mm | - | 49 W/m² | - |
| 1777821390 | 15° C | 54% | 1017.8 hPa | 0 mm | - | 132 W/m² | - |
| 1777821087 | 14.44° C | 55% | 1017.9 hPa | 0 mm | - | 37 W/m² | - |
| 1777820784 | 15° C | 56% | 1018 hPa | 0 mm | - | 65 W/m² | - |
| 1777820480 | 14.44° C | 56% | 1018 hPa | 0 mm | - | 33 W/m² | - |
* Rain latest hour (hover to see other rain measurements)
** Current wind speed in m/s (hover to see current wind gust speed)